Temp
53 53 54 54 54 54 54 53 50 51 52 55 55 55 55 54 54 51 49 52 43 37 42 46 47 42 43 43 34 45 40 43 39 32 33 37 40 42 43 48 46 43 43 44 50 45 43 57 55 58 69 63 63 64
53 53 53 54 54 54 54 53 50 50 52 54 55 55 54 54 54 53 44 53 51 40 41 50 50 52 50 50 45 42 39 35 39 36 37 40 41 46 45 39 50 42 53 52 53 53 59 59 64 65 62 65 61 63
52 53 53 53 53 53 53 52 50 50 50 52 54 55 54 54 54 52 47 49 45 39 39 39 41 50 53 54 55 38 41 45 40 46 39 39 39 50 43 47 49 52 54 53 53 59 56 56 60 61 63 65 64 63
52 52 53 52 52 52 52 52 52 50 51 52 54 54 54 54 53 52 46 47 43 34 32 37 52 48 56 54 52 52 49 48 48 46 37 35 37 51 48 52 52 57 55 55 56 58 57 56 59 62 63 63 62 62
52 52 52 52 52 52 52 52 52 52 50 52 54 53 53 53 53 51 49 47 46 39 33 36 47 51 52 51 50 50 48 45 40 38 35 35 44 47 50 49 51 59 56 54 54 66 64 66 62 62 62 62 64 61
51 52 52 52 52 52 51 51 51 51 51 52 53 53 52 52 51 46 38 46 49 45 36 32 48 47 50 50 49 47 46 45 42 38 37 42 48 42 42 42 55 61 63 67 65 69 66 65 64 63 64 66 65 64
51 51 52 52 52 52 51 51 51 51 52 52 52 52 51 51 48 40 38 46 50 48 37 32 36 46 48 47 46 45 47 44 42 39 38 41 45 46 38 41 55 60 60 62 65 68 63 61 67 62 68 70 65 66
51 51 51 51 51 51 50 51 51 51 52 52 51 51 50 50 47 41 48 50 47 41 39 32 33 40 46 41 38 45 41 42 40 37 41 39 43 41 34 47 53 58 58 59 60 63 65 67 67 63 67 68 63 64
50 50 51 51 50 50 49 51 51 51 51 51 50 50 47 44 39 43 50 51 49 41 32 33 33 33 43 42 43 41 44 35 42 37 38 40 37 34 42 47 52 56 56 58 62 63 62 59 63 65 63 64 65 66
50 50 50 50 49 48 50 51 51 50 50 49 46 39 35 42 48 49 44 39 38 36 36 33 38 36 43 42 38 40 39 36 31 37 41 35 38 48 53 53 56 57 59 62 58 57 57 58 61 61 62 66 68 69
50 50 49 49 48 49 50 50 50 49 48 41 36 35 42 46 44 39 32 31 32 30 33 35 38 37 45 38 38 43 36 35 31 38 36 34 36 48 55 54 56 58 61 63 64 64 65 63 63 62 61 64 66 69
49 49 49 49 50 50 50 50 49 45 41 41 40 40 40 36 33 31 30 31 31 31 35 32 35 40 42 45 40 39 34 34 30 37 34 32 47 54 56 54 55 58 60 61 64 63 64 64 65 66 66 64 62 64
49 49 48 46 49 49 49 49 48 47 46 44 39 33 32 31 27 25 22 27 29 35 36 35 35 40 40 42 39 36 31 31 41 33 35 43 51 53 53 55 56 59 59 59 60 63 63 62 64 65 64 64 64 62
48 48 47 47 49 50 48 49 48 46 42 34 30 26 28 26 29 31 32 35 39 40 38 39 39 36 39 35 36 30 35 34 28 28 35 47 49 49 51 53 55 56 58 59 59 60 61 60 61 62 64 65 61 59
48 48 48 48 49 49 48 49 49 45 40 30 30 24 27 34 35 34 35 36 38 39 39 37 38 37 34 33 34 34 30 27 33 38 44 46 48 49 50 51 52 56 57 59 61 59 59 60 60 60 62 63 63 61
48 48 47 49 49 49 48 47 44 43 36 30 30 27 34 33 34 34 36 36 41 39 39 36 33 32 30 32 29 29 30 30 39 44 46 45 46 49 49 50 50 52 56 59 60 62 61 60 60 61 61 60 61 60
47 42 48 49 49 48 46 43 40 33 32 28 27 33 34 35 34 36 36 38 42 35 31 32 31 30 35 31 30 36 34 42 44 45 46 46 45 47 47 48 49 49 50 54 59 62 62 63 63 61 58 58 61 59
43 45 49 48 46 44 40 40 33 31 27 30 28 35 35 37 36 36 37 39 37 35 33 32 36 31 30 29 31 40 40 44 45 44 45 45 47 47 46 46 47 48 49 51 53 55 56 56 56 57 59 60 57 58
45 45 48 47 42 35 32 32 32 28 29 32 34 36 35 35 37 39 38 39 40 39 34 32 32 32 35 39 37 40 42 43 42 42 44 47 47 45 45 46 45 46 47 48 50 50 52 54 55 56 56 55 54 54
49 49 47 47 41 33 31 31 33 30 29 33 35 33 34 35 38 39 37 36 34 33 32 31 34 37 40 42 43 43 44 45 42 41 44 47 47 46 46 45 44 45 46 46 47 47 49 49 51 53 54 53 54 51
41 43 44 43 36 33 33 31 29 31 34 33 36 34 35 37 37 36 35 36 33 32 31 34 35 39 42 44 45 45 45 44 43 41 42 41 46 46 47 46 44 44 43 44 45 46 45 49 50 50 50 52 54 54
36 42 38 39 32 31 31 33 31 34 33 34 33 34 33 33 34 35 37 34 34 37 38 38 39 40 42 42 44 44 45 44 45 43 43 44 44 44 46 44 42 41 41 42 45 45 44 45 47 49 50 49 49 50
39 37 33 31 28 29 30 34 31 32 28 29 32 30 30 31 34 36 32 34 38 41 41 40 41 41 42 42 42 43 43 42 43 45 44 46 46 46 46 44 43 41 41 40 44 44 43 43 44 46 46 47 45 43
41 33 29 27 28 28 31 28 31 30 31 30 29 28 28 30 34 31 31 35 40 40 40 39 40 41 41 39 41 43 44 44 44 45 46 45 46 47 45 43 43 42 41 41 43 43 43 43 43 44 44 42 42 42
28 24 26 20 26 26 25 27 29 28 25 27 24 25 28 32 27 27 28 35 38 40 41 40 39 40 41 42 42 43 44 44 44 43 46 45 46 46 46 43 43 41 42 41 41 42 42 43 43 43 42 41 41 40
25 26 26 24 26 27 29 24 26 29 30 27 29 31 31 29 24 24 31 38 39 40 41 41 41 40 40 41 41 42 44 44 42 42 45 46 47 46 44 41 42 43 43 43 42 41 41 42 42 42 42 41 41 39
21 24 29 33 32 31 29 31 32 30 27 24 29 28 28 21 21 31 39 39 39 42 43 43 43 43 43 44 43 43 44 44 43 43 45 46 47 48 47 46 45 46 44 43 44 44 42 41 41 42 41 41 41 41
30 31 27 29 29 31 26 29 28 27 29 32 31 27 23 24 29 38 39 42 41 42 42 43 43 44 44 45 45 44 43 42 42 42 43 46 47 47 46 47 48 43 45 45 45 45 44 43 42 41 40 40 40 41
30 32 32 27 30 29 28 29 29 33 35 33 30 29 31 37 39 39 41 41 41 41 41 41 43 43 43 44 43 43 43 42 40 39 40 41 44 48 47 46 46 46 46 45 43 45 45 44 43 42 41 40 40 41
30 35 30 30 25 25 30 33 33 34 34 35 34 34 34 36 38 39 40 40 39 41 43 43 44 42 42 42 42 43 43 43 43 44 42 44 46 49 46 46 45 45 46 45 44 44 43 43 41 40 39 38 38 38
34 34 30 30 26 30 32 32 32 32 32 32 34 32 34 36 38 39 39 41 40 40 40 40 40 41 41 41 41 41 41 44 43 44 46 49 48 49 47 47 46 46 46 45 44 43 41 40 40 38 38 37 38 38
32 30 30 25 27 30 30 30 30 29 29 29 30 30 32 31 31 36 36 36 37 37 38 39 39 40 43 44 45 46 43 47 44 43 44 45 46 48 48 46 45 46 46 45 44 42 41 40 39 39 38 37 37 37
31 31 31 30 26 26 28 28 26 25 25 25 27 28 30 31 30 36 36 36 35 34 35 37 38 39 41 42 43 44 43 45 45 43 43 44 45 46 45 45 45 44 44 43 43 42 41 40 39 38 38 38 37 37
MSLP
1013.05 1012.62 1012.16 1011.65 1011.21 1010.74 1010.30 1009.89 1009.77 1009.28 1008.78 1008.31 1008.32 1008.41 1008.61 1008.97 1009.33 1009.93 1009.81 1010.37 1010.96 1010.35 1009.64 1009.51 1009.29 1009.10 1009.07 1009.03 1009.01 1008.30 1008.64 1007.85 1008.42 1008.81 1007.96 1006.11 1004.29 1003.74 1003.15 1002.00 1002.60 1002.09 1001.84 1001.25 1000.88 1000.34 999.77 999.58 1000.45 999.29 997.88 998.07 998.39 998.90
1012.17 1011.52 1011.20 1010.75 1010.38 1009.94 1009.48 1009.07 1009.10 1008.54 1008.16 1007.97 1007.84 1008.03 1008.27 1008.53 1008.83 1009.19 1009.19 1009.21 1009.75 1009.97 1008.50 1008.19 1007.87 1007.81 1007.94 1007.59 1008.25 1008.47 1008.10 1007.69 1007.93 1007.94 1007.17 1005.44 1003.51 1002.17 1001.42 1000.93 1001.40 1000.99 999.23 999.29 999.27 998.45 998.58 998.63 998.24 998.33 998.52 998.39 998.76 999.15
1010.99 1010.30 1009.99 1009.69 1009.41 1009.15 1008.69 1008.47 1008.40 1008.18 1007.99 1007.73 1007.55 1007.69 1007.95 1008.05 1007.97 1008.36 1008.45 1008.46 1009.09 1008.96 1008.14 1007.83 1006.61 1007.00 1007.21 1006.87 1007.31 1007.83 1007.56 1007.47 1007.55 1007.46 1007.03 1005.12 1003.10 1001.32 1000.07 999.19 999.23 1000.01 999.81 998.89 999.03 998.21 998.22 998.52 998.57 998.63 998.73 998.80 998.97 999.37
1009.71 1009.21 1008.86 1008.77 1008.61 1008.27 1007.92 1007.66 1007.39 1007.41 1007.48 1007.21 1007.01 1006.90 1007.13 1007.17 1007.20 1007.61 1007.50 1007.50 1008.32 1008.31 1007.29 1006.27 1005.63 1005.39 1005.39 1005.89 1006.16 1006.26 1006.68 1007.00 1007.03 1006.93 1006.96 1006.08 1003.56 1001.52 999.75 998.81 998.09 997.61 998.87 997.89 997.47 997.51 997.92 998.21 998.22 998.13 998.56 998.95 999.23 999.65
1008.32 1007.91 1007.68 1007.54 1007.40 1007.27 1007.13 1006.93 1006.73 1006.67 1007.00 1006.77 1006.38 1006.62 1006.62 1006.71 1006.76 1006.83 1006.73 1006.78 1007.16 1007.24 1006.68 1005.84 1005.45 1004.60 1004.46 1004.65 1004.89 1005.44 1005.90 1006.11 1006.33 1006.38 1006.20 1005.36 1003.63 1002.09 1000.42 999.44 997.33 996.78 996.69 996.51 995.75 996.25 996.54 996.60 997.21 997.73 998.09 998.42 998.99 999.42
1007.12 1006.79 1006.59 1006.42 1006.43 1006.30 1006.22 1006.16 1006.07 1006.07 1006.16 1006.10 1006.05 1006.08 1006.11 1006.29 1006.39 1006.60 1006.32 1005.72 1006.02 1006.54 1006.48 1005.64 1004.06 1003.53 1003.24 1003.40 1003.89 1004.32 1004.63 1005.24 1005.57 1005.50 1005.06 1004.39 1003.23 1003.41 1000.43 999.02 997.29 996.83 996.67 995.99 995.64 995.80 996.13 996.05 996.42 996.84 997.33 997.94 998.55 999.04
1006.09 1005.91 1005.62 1005.50 1005.57 1005.49 1005.51 1005.38 1005.35 1005.49 1005.46 1005.41 1005.50 1005.59 1005.68 1005.84 1005.99 1006.15 1005.59 1005.10 1005.01 1005.91 1005.98 1005.30 1003.70 1002.71 1002.68 1003.01 1003.37 1003.61 1003.86 1003.83 1004.29 1004.13 1004.22 1003.87 1002.97 1002.29 1001.21 998.39 997.33 996.84 996.78 996.45 996.31 996.04 996.00 995.77 995.68 996.39 996.86 997.30 998.05 998.68
1005.22 1005.03 1004.89 1004.93 1004.86 1004.77 1004.60 1004.53 1004.74 1004.85 1004.88 1004.93 1005.04 1005.04 1005.17 1005.28 1005.49 1005.35 1004.83 1005.03 1005.18 1005.48 1005.59 1004.97 1003.63 1002.91 1002.58 1002.28 1002.60 1002.80 1002.97 1003.36 1003.39 1003.17 1003.12 1002.65 1002.16 1001.51 999.84 998.13 997.76 997.05 996.72 996.53 996.35 996.35 996.16 995.92 995.94 996.35 996.67 997.22 997.91 998.32
1004.57 1004.45 1004.25 1004.18 1004.22 1004.14 1004.18 1004.09 1004.19 1004.26 1004.41 1004.54 1004.63 1004.76 1004.95 1004.95 1004.76 1004.11 1003.94 1004.17 1004.84 1005.59 1004.68 1004.23 1003.10 1002.28 1002.35 1001.83 1001.96 1002.16 1002.18 1002.50 1002.62 1001.99 1001.81 1001.97 1001.01 999.72 997.93 997.54 997.06 996.59 996.18 996.18 996.09 996.09 996.05 996.12 995.97 995.79 996.44 996.83 996.93 997.42
1003.89 1003.73 1003.60 1003.59 1003.69 1003.89 1003.69 1003.58 1003.66 1003.86 1004.03 1004.38 1004.70 1004.99 1004.48 1003.98 1003.73 1003.72 1004.09 1004.36 1004.68 1004.61 1004.60 1003.73 1002.90 1002.19 1001.89 1001.34 1001.37 1001.44 1001.63 1001.08 1001.25 1001.01 1001.15 1000.76 998.63 996.79 996.73 996.42 995.97 995.84 995.55 995.53 995.60 995.31 995.57 995.56 995.59 995.57 995.61 995.82 996.00 996.39
1003.19 1003.12 1003.08 1003.10 1003.29 1003.20 1003.16 1003.19 1003.34 1003.69 1004.16 1004.56 1004.66 1004.30 1003.91 1003.75 1003.62 1003.68 1003.62 1003.86 1004.06 1003.85 1003.54 1002.82 1002.11 1001.18 1001.00 1000.90 1000.69 1000.57 1000.62 1000.99 1000.30 999.67 999.66 998.64 996.37 995.22 995.34 995.17 994.91 994.78 994.68 994.42 994.66 994.59 994.55 994.91 995.18 995.19 995.33 995.45 995.80 996.12
1002.52 1002.51 1002.49 1002.51 1002.60 1002.62 1002.77 1002.91 1003.20 1003.65 1003.89 1004.14 1004.21 1004.48 1004.06 1003.62 1003.46 1002.99 1003.02 1003.16 1002.97 1002.31 1002.22 1001.90 1001.35 1001.11 1000.76 1000.67 1000.55 1000.60 1000.47 1000.52 999.47 999.23 998.26 996.28 994.21 993.60 993.25 993.12 993.06 993.42 993.61 993.60 993.80 993.57 993.68 994.50 994.38 994.55 994.92 995.39 995.61 995.97
1002.02 1002.03 1002.07 1002.49 1002.27 1002.29 1002.51 1002.76 1003.08 1003.42 1003.69 1003.73 1003.79 1003.98 1003.45 1003.47 1003.02 1002.72 1002.37 1001.86 1001.52 1001.38 1001.24 1001.08 1000.49 1000.41 1000.69 1000.65 1000.48 1000.36 1000.09 999.34 998.80 998.04 996.04 994.46 993.26 993.54 993.51 992.93 992.72 992.91 992.94 992.92 992.65 992.87 993.34 993.34 993.88 994.41 994.62 995.04 995.66 996.25
1001.50 1001.57 1001.92 1002.01 1001.94 1001.94 1002.23 1002.54 1002.91 1003.44 1003.57 1003.59 1003.69 1003.32 1002.74 1002.42 1001.96 1001.56 1001.37 1001.09 1000.92 1000.86 1000.77 1000.43 1000.03 1000.09 1000.16 1000.22 1000.00 999.65 999.37 999.08 998.04 996.55 994.86 993.68 993.50 993.37 993.05 992.93 992.51 991.97 991.94 992.15 992.39 992.46 992.64 993.07 993.38 993.74 994.11 994.78 995.65 996.26
1001.10 1001.21 1001.52 1001.62 1001.63 1001.76 1002.07 1002.30 1002.82 1003.13 1003.26 1003.60 1003.61 1002.87 1002.01 1001.52 1001.43 1001.39 1001.39 1001.16 1000.87 1000.90 1000.64 1000.46 1000.08 1000.04 999.63 999.51 999.24 998.89 998.48 997.40 995.97 994.45 993.78 993.71 993.53 993.32 992.98 992.56 992.05 991.47 991.43 991.51 991.61 992.17 992.64 993.04 993.22 993.48 994.00 994.57 995.12 996.02
1000.71 1000.94 1000.95 1001.05 1001.32 1001.67 1001.89 1002.26 1002.79 1002.93 1003.31 1003.45 1003.13 1002.47 1001.58 1001.31 1000.88 1000.89 1000.66 1000.34 1000.09 1000.26 1000.47 1000.37 999.63 999.07 998.84 998.33 998.03 997.13 996.34 995.25 994.37 993.94 994.07 994.18 993.93 993.30 992.88 992.63 992.12 991.73 991.16 990.81 991.08 991.45 991.96 992.60 992.97 993.32 993.86 994.53 995.04 995.58
1000.37 1000.50 1000.40 1000.60 1000.97 1001.43 1001.91 1002.37 1002.78 1003.11 1003.13 1002.86 1002.33 1001.94 1001.46 1000.89 1000.51 1000.23 1000.10 999.85 999.90 999.96 999.67 999.44 998.28 997.20 997.14 996.76 996.34 995.63 994.84 994.19 994.14 994.28 994.17 994.06 993.99 993.37 992.88 992.33 992.11 991.98 991.57 991.21 990.88 990.91 990.97 991.49 992.27 992.95 993.44 994.09 994.77 995.41
999.94 1000.02 1000.06 1000.40 1001.01 1001.77 1002.44 1002.62 1003.02 1002.99 1002.51 1002.13 1001.93 1001.07 1000.98 1000.58 1000.12 999.93 999.55 999.58 999.73 999.52 999.18 998.00 996.95 996.45 995.79 995.24 994.82 994.40 994.63 994.38 994.37 994.53 994.46 994.14 993.74 993.12 992.80 992.65 992.52 991.89 991.59 991.41 991.20 991.13 991.07 991.26 991.76 992.29 992.87 993.44 994.32 995.00
999.30 999.62 999.98 1000.38 1001.08 1001.89 1002.50 1002.96 1002.94 1002.30 1001.70 1001.55 1001.17 1000.91 1000.71 1000.19 999.58 999.28 999.16 999.21 999.06 999.11 998.75 997.80 996.51 995.14 994.60 994.45 994.28 994.27 994.39 994.27 994.29 994.44 994.33 993.95 993.59 993.23 992.87 992.97 992.50 992.25 991.93 991.51 991.27 990.80 990.89 991.24 991.53 991.89 992.29 992.93 993.50 994.35
998.42 998.86 999.38 1000.10 1000.95 1001.89 1002.03 1002.11 1002.18 1001.63 1000.78 1000.34 1000.34 1000.18 999.88 999.23 998.78 998.64 998.62 998.73 998.61 998.16 997.49 996.39 994.84 994.64 994.05 994.08 994.08 994.31 994.34 994.39 994.56 994.20 994.01 993.71 993.63 993.37 993.08 992.83 992.51 992.26 991.86 991.64 991.27 991.37 991.68 991.94 991.93 991.78 991.92 992.41 993.04 993.91
998.73 998.89 999.45 999.93 999.98 1000.91 1001.15 1001.03 1001.07 1000.60 999.97 999.64 999.31 999.52 999.12 998.83 998.41 998.19 998.17 998.17 997.96 997.31 996.80 995.93 995.27 994.96 994.87 994.69 994.60 994.56 994.34 994.35 994.47 994.58 994.15 993.50 993.11 993.13 992.57 992.37 992.26 991.88 991.75 991.57 991.53 991.83 991.89 991.61 991.69 992.05 992.41 992.82 993.38 993.97
997.75 998.06 998.11 999.11 1000.04 1000.33 1000.04 1000.01 999.92 999.36 999.52 998.88 998.89 998.91 998.70 998.45 998.19 998.11 998.06 997.89 997.24 996.44 996.21 995.61 995.09 995.16 995.27 995.06 994.74 994.47 994.39 994.25 994.17 994.26 994.16 993.86 993.39 992.70 992.30 992.31 992.21 992.20 992.19 992.29 992.10 991.94 992.06 992.15 992.29 992.40 992.83 993.30 993.80 994.40
996.67 996.88 996.99 997.70 998.56 999.02 998.81 999.07 998.96 998.71 998.59 998.54 998.51 998.56 998.38 998.26 998.21 998.44 997.97 997.23 996.07 995.45 995.37 995.40 995.32 995.36 995.20 994.97 994.82 994.55 994.42 994.41 993.98 993.73 993.67 993.47 993.10 992.89 992.81 992.64 992.61 992.59 992.66 992.68 992.54 992.24 992.48 992.86 992.93 992.93 993.32 993.69 994.19 994.95
995.59 995.91 996.63 997.37 997.71 997.99 998.29 998.28 998.26 998.11 998.07 998.06 998.16 998.19 998.23 998.02 998.06 997.72 996.86 995.94 995.09 995.03 995.01 995.00 995.11 995.02 995.01 994.83 994.43 994.13 994.14 994.30 994.10 993.64 993.32 993.28 993.21 993.03 992.99 992.83 992.74 992.76 993.01 993.04 992.94 992.90 993.03 993.30 993.40 993.66 993.89 994.04 994.46 995.25
995.93 997.21 997.33 997.61 997.61 997.58 997.65 997.67 997.72 997.80 997.63 997.76 997.97 998.02 998.11 998.29 997.81 997.24 996.31 994.94 994.46 994.37 994.51 994.75 994.87 994.71 994.43 994.28 994.16 993.93 993.96 994.13 994.00 993.72 993.56 993.60 993.29 992.98 992.69 992.65 992.89 993.07 993.28 993.34 993.17 993.13 993.39 993.71 994.02 994.33 994.63 994.81 995.23 995.87
996.41 997.16 997.29 997.10 997.18 997.01 996.83 996.97 996.94 996.91 997.06 997.25 997.23 997.50 997.64 997.59 997.47 996.60 995.42 994.01 993.77 993.97 993.85 993.99 994.18 994.34 994.37 994.38 994.29 994.16 993.75 993.80 994.06 993.74 993.43 993.39 993.47 993.36 993.00 992.82 992.43 992.50 992.73 993.02 993.09 993.09 993.40 993.90 994.42 995.05 995.39 995.70 996.14 996.36
996.80 996.95 996.97 996.95 996.81 996.75 996.71 996.67 996.62 996.64 996.71 996.79 996.86 997.14 997.19 997.29 996.63 995.40 994.15 993.60 993.64 993.62 993.56 993.61 993.73 993.83 994.00 994.16 994.21 994.31 994.17 993.93 993.81 993.83 993.57 993.41 993.46 993.37 993.30 993.05 992.79 992.60 992.72 992.92 993.24 993.24 993.35 993.97 994.87 995.52 995.74 996.40 996.86 996.78
996.27 996.34 996.37 996.73 996.73 996.66 996.55 996.39 996.31 996.20 996.21 996.42 996.72 996.56 996.36 996.00 995.13 994.40 993.99 993.44 993.44 993.71 993.73 993.72 993.75 993.88 993.95 993.93 993.95 993.98 994.07 994.23 994.17 994.08 993.91 993.42 993.11 993.09 993.20 993.08 993.00 992.96 993.10 993.26 993.38 993.49 993.74 994.26 994.97 995.63 996.14 996.40 996.74 997.07
996.07 996.10 996.25 996.38 996.37 996.47 996.31 996.14 995.97 995.78 995.69 995.88 995.92 995.66 995.25 994.82 994.36 994.09 993.95 993.81 993.63 993.69 993.72 993.70 993.57 993.56 993.66 993.83 993.61 993.38 993.68 994.04 994.01 993.64 993.28 992.96 992.95 992.79 992.78 992.70 992.70 992.93 993.27 993.70 993.84 993.87 994.32 994.74 995.26 995.90 996.37 996.84 997.30 997.78
996.07 995.86 996.01 996.17 996.37 996.29 995.99 995.95 995.83 995.78 995.81 995.76 995.66 995.25 994.81 994.29 993.84 993.67 993.63 993.61 993.59 993.46 993.24 993.15 993.13 993.35 993.26 993.21 993.21 993.23 993.20 993.21 993.24 993.29 993.29 992.93 992.71 992.69 992.95 992.95 993.10 993.31 993.62 993.79 994.18 994.53 994.83 995.33 996.12 996.44 996.80 997.32 997.78 998.32
996.07 995.95 996.03 996.11 996.18 996.12 996.08 996.10 996.08 996.06 995.93 995.62 995.33 995.20 994.54 994.14 993.26 992.96 992.87 992.76 992.74 992.77 992.81 992.74 992.74 992.77 992.85 992.73 992.54 992.38 992.13 992.16 992.18 992.32 992.51 992.57 992.73 992.51 992.80 993.15 993.27 993.40 993.78 994.04 994.41 994.84 995.32 995.81 996.09 996.49 997.11 997.40 997.83 998.36
996.07 995.95 995.94 996.01 996.07 996.22 996.27 996.23 996.11 995.99 995.76 995.61 995.20 995.03 994.77 994.52 993.90 992.98 992.98 992.91 992.77 992.66 992.37 992.29 992.18 991.89 991.84 991.73 991.76 991.74 991.64 991.54 991.57 991.58 991.85 992.15 992.38 992.70 992.69 992.98 993.50 993.65 993.96 994.32 994.51 995.03 995.45 995.67 996.00 996.60 997.26 997.78 998.16 998.61
996.12 996.11 996.15 996.17 996.27 996.28 996.37 996.43 996.31 996.12 995.95 995.61 995.24 995.03 994.75 994.51 993.83 993.05 993.04 993.15 993.27 992.99 992.69 992.41 992.09 991.82 991.69 991.64 991.52 991.40 991.37 991.26 991.21 991.09 991.10 991.51 991.89 992.27 992.80 993.07 993.34 993.58 993.79 994.04 994.51 995.04 995.19 995.60 996.07 996.64 997.31 997.80 998.24 998.89
Wind_Speed
26 26 26 28 27 29 24 28 17 23 23 12 7 7 7 10 12 10 7 11 9 5 16 16 22 21 13 12 11 7 5 11 7 11 6 7 10 12 13 14 22 15 13 12 17 15 14 9 10 13 7 2 5 11
27 27 26 28 26 28 25 27 17 23 15 14 10 9 9 12 14 12 6 9 11 9 9 13 24 25 22 22 13 6 6 4 2 6 5 6 7 10 18 15 9 10 10 12 13 12 3 21 5 7 1 2 5 11
30 28 27 28 26 26 26 26 13 20 17 15 13 11 11 13 14 13 7 6 5 7 6 8 18 18 16 21 15 6 5 7 7 8 5 4 8 6 12 17 21 17 5 7 7 13 8 14 7 3 4 2 3 7
30 28 29 26 26 25 24 24 18 15 15 16 16 11 12 14 13 15 5 4 8 2 4 4 12 20 21 20 22 21 16 4 9 7 4 4 4 5 12 11 17 13 15 13 9 5 3 5 12 7 8 3 4 8
27 27 26 25 25 22 22 22 18 14 15 18 13 11 13 14 14 9 4 5 7 4 2 2 6 15 13 17 20 21 19 17 8 3 5 5 5 5 3 3 12 13 14 15 11 10 11 9 13 12 9 12 8 11
25 24 23 23 21 22 21 19 17 15 15 16 11 12 13 13 8 1 3 6 9 7 2 3 3 8 10 17 17 18 15 12 9 5 3 4 9 5 6 9 18 12 16 16 14 11 12 5 5 13 15 13 12 11
22 22 22 20 19 20 19 19 16 14 14 13 12 12 12 11 3 4 3 2 10 8 2 3 5 2 5 6 7 7 13 6 6 4 6 6 8 10 4 13 13 14 13 13 12 11 9 6 12 10 13 16 13 10
18 19 20 18 18 18 18 14 13 13 13 12 12 11 9 7 3 6 9 5 3 2 3 4 4 3 6 5 4 6 4 6 4 3 4 4 4 3 7 11 17 16 7 9 13 12 8 9 11 7 9 12 15 14
19 20 18 16 16 15 13 13 11 12 11 8 6 4 1 3 3 3 8 9 5 2 2 2 3 2 3 3 4 4 5 5 4 4 4 6 5 8 11 15 15 17 22 11 10 11 14 9 10 14 14 14 16 18
16 16 16 16 13 12 15 10 11 8 4 5 2 2 4 4 3 7 2 4 4 3 4 4 3 4 4 5 4 3 3 4 4 7 5 6 12 20 17 15 15 17 21 21 19 16 11 15 10 11 16 15 18 18
16 15 15 12 10 15 10 8 7 5 7 2 3 3 2 4 2 2 4 4 3 4 4 4 9 7 5 6 5 4 2 2 4 7 10 6 8 16 20 22 20 20 22 22 20 19 15 15 14 11 12 14 14 15
13 14 14 11 14 10 6 5 9 4 4 3 2 2 3 2 3 4 3 4 5 5 5 4 6 8 3 3 5 3 4 4 6 1 4 5 7 12 15 23 23 21 23 24 23 21 19 15 15 12 10 10 12 12
14 13 8 9 11 7 6 9 9 6 1 2 3 2 3 3 5 5 6 3 3 4 5 5 5 5 4 4 4 3 5 6 1 3 5 6 8 2 3 8 19 21 20 19 22 21 19 16 14 13 11 9 8 9
12 8 8 13 11 7 5 10 11 6 3 2 2 4 4 4 4 4 3 1 2 2 5 6 4 5 3 5 4 5 5 2 5 6 6 7 5 7 7 6 11 19 23 21 18 15 18 17 14 13 12 8 10 10
11 10 10 12 9 7 6 8 13 3 2 3 3 5 5 3 2 3 4 3 3 1 3 3 4 3 3 4 5 5 6 7 7 6 3 2 5 7 10 9 9 13 16 18 18 15 13 12 12 11 10 9 9 9
10 7 6 8 8 7 7 7 3 1 1 2 4 4 4 3 3 3 5 7 3 4 3 3 4 4 7 4 7 9 6 6 4 3 1 3 8 8 9 9 9 9 10 15 16 17 14 15 13 12 10 10 10 11
9 3 8 9 11 9 11 3 2 3 4 3 4 5 6 5 6 4 3 3 3 2 4 4 8 7 5 5 5 5 6 2 1 1 2 5 8 9 8 8 9 9 9 9 13 17 18 14 12 13 12 10 10 11
4 5 12 10 8 7 2 2 2 3 6 4 4 4 4 5 4 5 4 4 3 3 2 3 2 6 4 5 4 3 2 2 2 3 4 5 7 8 7 8 9 9 9 9 9 9 9 10 12 10 13 13 12 11
7 7 11 14 7 5 4 3 3 4 7 3 6 5 3 4 6 7 5 5 6 4 3 3 7 6 5 3 3 3 2 1 2 2 3 4 4 8 9 8 7 6 7 7 7 5 5 9 8 7 7 9 9 9
15 15 13 17 11 3 5 4 2 4 5 5 4 4 4 4 2 3 4 2 2 2 5 5 2 2 1 3 3 3 3 2 2 3 3 1 2 5 6 5 4 5 3 2 3 4 5 5 5 6 6 8 8 8
1 5 7 7 3 4 4 4 4 4 3 5 3 4 3 2 4 3 2 2 2 2 3 3 2 3 3 1 0 0 2 2 2 2 4 5 7 7 6 3 4 3 2 1 2 3 6 5 4 6 8 9 9 9
4 10 5 10 4 4 3 5 3 4 4 2 4 3 3 3 3 2 1 2 3 4 4 3 2 1 4 4 2 3 4 5 6 4 5 7 5 6 7 6 4 4 3 2 1 3 2 2 3 5 7 8 9 9
13 8 3 3 5 7 5 5 5 5 5 4 4 3 3 2 2 2 3 4 4 2 2 2 2 3 4 3 3 5 3 4 5 4 4 4 5 5 5 4 3 3 3 1 1 4 4 5 5 7 8 10 10 10
2 3 3 3 2 4 3 3 1 2 2 3 3 3 2 2 1 3 4 3 3 2 2 4 3 3 3 3 3 2 2 1 3 4 3 3 5 5 4 3 3 2 2 2 3 5 6 5 8 7 8 10 11 11
4 3 3 3 0 4 3 4 4 3 3 3 4 3 3 3 2 3 4 4 3 5 4 4 4 4 4 1 2 5 4 2 4 4 2 2 5 4 2 1 1 1 3 2 4 7 7 7 6 7 8 9 13 14
3 3 2 2 2 2 5 4 5 4 4 3 2 3 3 2 3 5 4 3 3 3 3 4 4 3 2 3 3 3 4 2 1 3 3 2 4 4 3 3 3 2 2 1 4 7 9 8 8 10 10 13 18 16
3 3 2 1 1 2 2 1 2 2 4 4 3 2 3 3 5 4 4 3 2 2 3 3 4 3 2 0 2 3 3 4 5 2 4 4 4 3 3 2 3 2 2 3 4 7 10 10 10 9 10 11 11 12
1 4 4 5 2 1 3 3 4 5 3 3 4 7 5 7 4 2 3 3 2 1 1 2 2 2 2 3 4 4 2 2 4 3 4 6 5 3 4 3 3 3 3 3 4 5 8 9 10 10 10 10 10 10
2 3 3 3 3 2 3 4 4 3 3 4 5 4 4 3 2 2 2 2 1 2 3 3 4 3 3 3 4 5 3 3 3 3 5 4 2 2 3 2 1 2 3 5 5 7 10 10 10 10 10 9 9 10
2 2 1 4 3 3 2 4 1 0 2 2 2 2 3 3 4 2 3 4 4 5 6 6 4 4 5 6 5 5 4 6 6 6 5 7 4 2 1 3 4 4 4 6 6 9 14 12 14 11 11 10 9 10
2 3 1 3 3 2 1 1 1 2 2 3 3 4 5 5 4 4 5 5 4 4 6 7 7 7 7 7 7 7 8 6 10 11 9 7 3 3 2 2 4 6 6 7 8 9 10 10 9 9 10 11 14 13
3 3 1 1 2 0 1 1 1 2 1 2 2 2 2 2 4 2 1 1 1 3 5 6 6 7 7 7 6 7 9 6 4 7 11 8 7 5 3 2 6 7 9 8 8 9 11 11 9 10 10 12 12 12
1 1 1 2 2 3 2 3 2 3 2 2 2 2 2 2 4 1 1 1 2 4 3 3 5 6 7 8 8 7 9 7 10 11 12 12 10 9 6 5 6 7 10 9 8 9 11 12 11 11 11 13 13 13
Wind_Direction
290 296 295 298 300 300 304 305 289 296 275 250 248 251 260 252 239 219 233 199 202 225 252 244 235 242 242 239 236 249 279 228 202 209 232 196 229 192 210 204 206 183 181 203 221 217 240 139 135 195 204 100 148 177
290 288 292 294 300 298 300 305 289 277 288 271 248 260 267 268 252 233 243 210 207 227 259 231 230 235 226 236 248 215 237 255 319 217 224 237 208 195 204 206 181 219 197 199 205 206 70 176 180 194 285 194 175 175
287 287 285 289 294 296 294 299 304 276 277 273 269 253 258 265 265 252 240 207 199 242 252 220 227 230 235 235 237 232 223 215 211 201 311 269 250 202 210 216 187 224 226 227 175 207 207 202 219 212 197 236 163 175
288 288 285 287 288 289 292 295 285 253 274 275 261 268 278 277 275 256 226 198 212 119 228 275 227 237 236 229 225 226 237 223 237 212 188 283 238 231 238 236 223 197 188 213 233 238 226 236 225 208 199 201 156 152
288 288 284 279 280 285 285 289 281 264 250 272 271 274 280 280 274 264 237 215 204 223 251 217 280 240 226 217 218 223 221 224 245 212 199 220 275 265 212 281 239 198 203 202 216 209 206 215 201 199 187 198 191 167
284 284 281 275 279 282 285 284 273 259 256 265 272 274 281 276 269 219 261 214 208 192 227 243 270 229 218 219 219 219 217 214 210 192 194 231 232 284 255 240 237 227 236 216 208 200 211 241 163 186 200 195 190 192
287 283 277 277 274 282 281 278 258 253 260 270 274 275 272 264 195 194 244 33 193 162 225 255 252 236 225 193 200 217 222 205 214 194 201 218 218 206 249 241 226 239 230 229 245 244 242 239 247 178 202 200 184 181
290 284 281 273 279 286 284 250 243 255 261 265 269 278 257 240 264 252 241 236 143 157 205 234 260 281 187 182 195 180 198 193 217 193 186 215 206 211 246 242 244 252 244 241 244 243 280 287 216 189 191 175 177 185
284 280 272 278 282 275 259 252 250 256 262 265 255 244 258 203 215 217 214 199 170 189 267 232 248 223 152 225 184 186 192 200 202 215 186 184 192 226 227 229 223 229 242 249 243 242 235 248 242 197 186 193 190 193
277 279 282 279 271 253 258 248 254 263 232 128 156 155 221 209 233 144 145 166 179 187 209 238 171 251 213 192 199 226 192 206 206 204 150 212 241 248 246 235 242 227 229 230 242 241 237 236 235 207 202 198 199 189
276 269 272 278 243 253 249 251 258 158 113 87 219 219 307 289 191 161 200 187 172 201 204 213 217 210 200 214 210 211 177 206 239 174 189 204 248 237 225 226 228 229 237 240 232 240 229 227 218 219 213 210 206 198
274 274 278 253 234 234 242 182 138 127 173 198 177 190 263 201 172 208 193 159 210 220 183 205 223 221 197 216 216 202 215 192 242 124 224 226 245 233 210 217 223 220 223 233 229 230 242 220 215 222 226 217 197 192
267 267 231 235 242 223 202 172 150 149 277 225 203 228 207 159 206 201 198 206 213 184 192 208 185 170 188 212 225 188 221 228 75 238 238 238 284 258 221 250 233 226 224 230 234 226 228 232 202 208 209 198 193 185
257 249 187 250 230 217 210 183 171 170 213 186 213 240 242 175 228 195 214 281 27 227 190 207 200 191 185 182 195 208 206 222 227 230 234 252 270 304 315 264 242 224 225 222 231 227 219 210 199 203 220 192 168 173
247 239 209 236 207 214 202 171 175 182 165 198 201 237 223 217 206 176 239 256 214 241 241 226 248 200 177 214 197 203 197 223 225 219 226 173 314 304 295 288 269 234 219 224 223 225 223 209 199 191 192 184 176 159
236 244 231 213 202 210 191 139 99 175 116 217 224 239 237 244 246 186 226 244 233 221 221 217 235 180 223 212 188 211 211 211 212 214 67 317 292 297 299 289 289 272 253 222 219 222 217 205 195 199 192 190 185 171
222 210 199 193 195 192 148 106 125 175 235 230 237 236 268 295 276 263 223 218 171 206 206 229 211 208 148 199 214 207 216 203 171 272 322 303 291 300 315 323 306 279 259 244 230 219 217 217 202 200 202 200 194 178
205 199 195 195 150 106 46 76 132 229 239 217 237 244 216 242 258 247 245 219 198 213 249 262 268 201 212 194 204 202 198 271 253 241 269 283 300 313 330 320 299 287 268 253 234 220 206 205 205 207 202 189 187 193
193 188 198 165 137 121 147 194 190 250 222 215 238 235 245 254 242 255 269 259 250 234 246 229 236 197 196 193 178 155 179 248 301 306 286 284 310 314 323 310 309 280 256 242 224 217 223 219 221 206 184 167 176 175
232 220 205 176 122 139 193 195 187 235 215 208 215 210 217 233 253 257 281 254 225 225 225 220 249 8 81 138 169 169 172 186 270 310 286 282 290 312 297 310 307 296 277 220 194 191 201 204 206 189 182 181 175 177
75 199 225 216 146 170 199 179 209 229 196 204 170 189 233 234 253 247 265 167 254 253 284 271 303 336 325 103 241 200 229 252 287 264 302 311 338 307 302 345 336 340 332 298 181 185 207 212 173 171 171 181 188 178
220 242 169 171 168 197 229 180 242 170 188 172 160 182 222 228 230 194 359 244 227 232 192 234 259 188 237 235 246 258 274 293 287 274 268 273 295 335 339 351 351 359 358 334 218 152 121 125 149 150 153 144 143 148
171 184 126 120 128 191 138 163 195 186 171 180 163 190 210 223 188 175 226 237 258 247 207 223 239 208 256 286 282 272 274 272 289 303 313 311 327 324 311 336 347 346 337 5 29 105 104 126 135 136 140 138 132 124
50 57 85 97 130 110 135 155 128 128 156 159 178 199 211 215 195 234 249 232 241 199 208 223 217 232 218 233 251 262 257 223 286 294 301 317 306 319 317 340 353 15 4 135 118 112 115 115 125 135 145 133 128 133
88 356 95 35 312 122 123 148 160 154 171 168 171 203 174 171 213 247 253 254 215 224 214 206 215 237 255 264 292 285 275 235 272 282 293 241 286 294 329 338 63 105 113 155 135 125 119 124 130 140 145 139 137 136
63 349 42 152 146 154 163 146 181 169 153 165 167 128 171 175 220 235 235 258 235 201 204 204 193 178 226 238 275 282 300 357 188 261 296 294 263 280 318 324 338 350 152 205 165 136 127 127 133 148 146 141 145 134
136 196 177 250 124 140 103 127 149 148 174 172 170 171 167 214 237 252 279 230 199 204 211 177 177 175 151 210 246 251 271 285 267 305 324 325 297 270 267 287 287 309 143 162 186 164 140 135 142 151 145 145 154 147
208 171 184 161 192 210 165 177 182 188 178 166 170 195 202 204 228 229 240 301 242 56 204 188 193 211 261 283 282 288 302 254 272 266 242 260 264 271 249 250 247 132 143 175 168 151 140 141 145 146 144 139 134 136
200 144 135 181 174 202 216 195 211 217 176 177 190 211 229 212 231 227 219 253 323 207 227 235 253 250 253 262 278 283 267 222 213 242 272 279 302 249 188 169 120 121 136 144 140 140 149 141 141 140 132 127 124 125
202 190 120 185 191 233 244 200 244 266 219 237 285 285 255 236 233 221 234 217 214 226 236 243 249 205 262 277 267 257 236 233 226 222 213 243 258 283 175 156 143 135 146 135 135 131 126 118 123 123 124 128 131 131
181 199 216 195 234 234 239 295 266 250 235 235 221 245 269 303 291 234 248 267 269 265 252 245 241 229 229 239 246 257 263 218 228 226 218 234 224 280 231 157 135 141 149 149 147 148 147 147 145 140 150 149 151 146
174 200 254 297 292 8 305 278 284 270 266 246 252 217 271 259 262 274 150 337 332 295 263 250 240 242 225 228 229 235 246 264 236 229 219 221 217 221 262 197 148 153 159 168 162 159 163 155 148 151 152 150 151 148
139 220 264 287 304 334 2 345 314 306 277 270 261 226 234 253 264 301 143 85 6 300 292 311 297 281 261 241 231 236 235 240 234 220 222 220 203 170 163 183 167 163 161 161 162 171 160 154 151 151 158 159 153 150